Location: Slidell
(30.2789°N, 89.7378°W)
Time: 11:24:11
(UTC-05:00)

Daily predictions for brighter satellites

Satellite Brightness Start Highest point End
(mag) Time Altitude Azimuth Time Altitude Azimuth Time Altitude Azimuth
deb Centaur AC-2 4.3 20:14:37 10° W 20:19:08 86° S 20:24:27 10° E
SL-16 R/B 3.5 20:13:54 10° SW 20:19:18 47° WNW 20:24:44 10° N
Abrixas rocket 2.8 20:17:00 10° NW 20:20:20 48° NE 20:23:39 10° ESE
Cosmos 1500 3.8 20:16:57 10° NNW 20:20:47 61° W 20:24:36 10° S
Cosmos 2058 Rocket 3.4 20:18:56 10° N 20:23:07 45° E 20:27:16 10° SSE
Okean 2 3.4 20:20:08 10° S 20:24:16 67° E 20:28:26 10° NNE
IUS-1 SRM-2 3.7 20:25:51 10° WSW 20:28:37 17° SSW 20:30:18 10° SSE
Cosmos 1302 Rocket 4.5 20:24:19 10° N 20:29:19 43° ENE 20:34:19 10° SE
Cosmos 2233 Rocket 4.4 20:23:51 10° N 20:30:02 71° W 20:36:08 10° S
CZ-2D R/B 3.4 20:27:48 10° SSE 20:31:38 61° ENE 20:35:30 10° N
CZ-2C R/B 2.6 20:33:07 11° ESE 20:34:09 14° ENE 20:35:24 10° NE
Aureole 2 Rocket 4.1 20:30:29 10° SW 20:34:15 43° WNW 20:37:44 10° N
Cosmos 1606 Rocket 3.9 20:32:13 10° N 20:36:36 71° W 20:40:55 10° S
Lacrosse 4 Rocket 2.6 20:36:00 10° SSE 20:38:57 20° ESE 20:41:56 10° ENE
H-2A R/B 3.4 20:36:22 11° ESE 20:39:34 24° ENE 20:43:02 10° NNE
YAOGAN 11 4.5 20:35:52 10° SSE 20:40:00 45° ENE 20:44:07 10° N
ERS-1 Rocket 3.7 20:37:15 10° SE 20:41:47 35° ENE 20:46:19 10° N
Cosmos 1743 3.4 20:38:42 10° NNW 20:42:28 56° W 20:46:12 10° S
Cosmos 2285 Rocket 4.0 20:37:30 10° NNW 20:43:51 84° ENE 20:50:14 10° SSE
Cosmos 1464 Rocket 4.0 20:40:04 10° N 20:46:12 68° E 20:52:21 10° SSE
Cosmos 1626 Rocket 3.7 20:41:56 10° S 20:46:16 56° E 20:50:37 10° NNE
deb Chang Zheng 4 3.8 20:43:08 10° NNE 20:47:23 49° E 20:51:35 10° S
CZ-4 DEB 2.7 20:44:57 10° SSE 20:48:09 80° E 20:51:23 10° N
Cosmos 2228 3.1 20:44:08 10° N 20:48:30 59° E 20:52:49 10° SSE
Cosmos 1603 4.0 20:43:10 10° SSW 20:48:46 74° WNW 20:54:23 10° NNE
FENGYUN 3A 3.6 20:44:07 10° SSE 20:49:28 80° ENE 20:54:52 10° N
OAO 3 Copernicus 4.3 20:48:08 10° WNW 20:53:12 80° SSW 20:57:04 17° ESE
Meteor 1-15 Rocket 4.2 20:48:12 10° N 20:53:48 73° E 20:59:30 10° SSE
Atlas Centaur 2 2.8 20:47:43 10° W 20:54:25 89° S 21:02:37 10° E
Envisat 4.2 20:54:15 16° ESE 20:57:10 26° ENE 21:01:18 10° NNE
Meteor 2-9 Rocket 4.3 20:52:45 10° N 20:58:33 85° E 21:04:24 10° S
Cosmos 407 Rocket 4.5 20:55:32 13° SSE 20:59:05 26° E 21:03:23 10° NE
Cosmos 2034 Rocket 4.0 21:01:12 10° N 21:07:33 76° E 21:13:38 11° S
Cosmos 1943 3.2 21:03:31 10° S 21:09:05 63° ESE 21:14:42 10° NNE
Nimbus 7 Rocket 4.4 21:03:42 10° NNE 21:09:34 63° ESE 21:15:21 10° S
Cosmos 1461 2.8 21:06:09 10° NNW 21:10:19 79° WSW 21:12:47 22° SSE
SJ-11-01 4.3 21:07:01 18° SSE 21:10:26 65° ENE 21:15:04 10° N
APEX 4.5 21:07:31 10° NNW 21:12:12 62° WSW 21:17:50 12° S
Cosmos 1939 Rocket 3.3 21:13:44 27° SE 21:15:39 47° ENE 21:19:38 10° N
Centaur D AC-29 3.9 20:59:10 10° W 21:16:52 25° SW 21:21:58 10° S
H-2A R/B 4.1 21:14:46 10° SSW 21:18:27 39° W 21:22:10 10° NNW
GRACE-1 3.8 21:17:26 10° N 21:20:17 69° E 21:20:48 52° SSE
GRACE-2 3.8 21:17:53 10° N 21:20:44 69° E 21:21:13 53° SSE
Delta 168 3.3 21:22:55 10° WSW 21:25:55 34° S 21:26:11 33° S
Cosmos 1346 Rocket 3.4 21:27:06 34° E 21:27:09 34° E 21:30:42 10° NNE
Cosmos 1992 Rocket 4.2 21:31:02 10° N 21:36:08 54° ENE 21:37:49 38° SE
SeaSat 1 3.5 21:35:39 26° E 21:37:00 30° ENE 21:41:14 10° N
ARGOS 4.4 21:36:49 23° E 21:37:52 25° ENE 21:42:10 10° NNE
Cosmos 1758 Rocket 4.1 21:40:29 39° E 21:40:29 39° E 21:44:32 10° NNE
Mugunghwa Rocket 4.1 21:36:19 10° WSW 21:42:22 50° SSE 21:44:41 35° ESE
ALOS 4.4 21:39:49 10° SSW 21:43:24 22° W 21:47:00 10° NW
USA 81 4.2 21:40:59 10° N 21:46:10 56° E 21:47:29 44° SE
MetOp-B 4.3 21:45:20 41° SE 21:46:51 54° ENE 21:52:04 10° N
Cosmos 1825 Rocket 3.8 21:54:32 33° SSW 21:56:25 68° W 22:00:50 10° N
CZ-4B R/B 3.4 21:52:27 10° NNE 21:57:38 87° ESE 21:59:55 35° SSW
Cosmos 2369 Rocket 2.2 21:52:27 10° NNW 21:58:03 62° ENE 21:59:14 50° ESE
OAO 1 Rocket 4.3 21:52:59 10° WSW 21:58:14 65° SSE 21:59:10 54° ESE
BREEZE-M DEB (TANK) 3.9 21:56:35 10° NW 21:57:38 25° WNW 21:57:38 25° WNW
H-2A R/B 3.7 22:04:51 19° ENE 22:04:51 19° ENE 22:07:57 10° NNE
ATLAS 3B R/B 3.7 21:58:08 10° SW 22:05:36 53° WNW 22:13:00 10° NNE
YAOGAN 6 3.3 22:06:29 47° NNE 22:06:29 47° NNE 22:09:22 10° N
Cosmos 1140 Rocket 4.2 22:07:18 37° ENE 22:07:18 37° ENE 22:11:07 10° NNE
CZ-4 R/B 3.8 22:03:48 10° NNE 22:08:49 76° ESE 22:09:21 68° SSE
deb Centaur AC-2 4.4 22:05:09 10° W 22:10:10 76° S 22:10:54 65° SE
SPOT 5 3.1 22:11:38 48° SW 22:12:18 53° W 22:16:32 10° NNW
Milstar 3 Cent rocket 3.8 22:07:38 10° W 22:12:33 20° SW 22:12:55 20° SSW
Cosmos 676 Rocket 4.2 22:10:41 31° SSW 22:13:15 72° WNW 22:18:35 10° NNE
SPOT 1/Viking Rocket 3.4 22:12:56 67° ESE 22:13:19 70° ENE 22:18:27 10° N
Terra 3.6 22:14:42 20° NE 22:14:42 20° NE 22:17:21 10° NNE
H-2A R/B 4.2 22:13:30 16° SW 22:15:27 21° W 22:18:44 10° NW
Lacrosse 4 Rocket 3.7 22:14:17 10° WSW 22:17:29 22° WNW 22:20:43 10° N
USA 234 4.3 22:21:50 27° ENE 22:24:14 35° NE 22:30:04 10° NNW
ATLAS 5 CENTAUR R/B 3.7 22:22:59 10° SW 22:48:12 - ESE 22:23:05 11° SW
Cosmos 2263 4.0 22:25:40 10° NNW 22:31:19 87° ENE 22:31:28 85° SE
COSMOS 2406 3.1 22:33:42 82° E 22:33:42 82° E 22:39:18 10° NNE
Nadezhda 4 Rocket 4.2 22:34:52 52° ENE 22:34:52 52° ENE 22:40:36 10° NNE
USA 245 4.4 22:36:14 61° SW 22:36:53 66° WSW 22:42:06 10° NNW
Atlas Centaur 2 2.8 22:36:49 10° W 22:44:25 83° S 22:46:02 62° ESE
USA 238 DEB 4.2 22:43:45 10° SW 22:50:43 59° WNW 22:57:42 10° NNE
USA 238 4.2 22:43:51 10° SW 22:50:49 59° WNW 22:57:48 10° NNE
Cosmos 1943 Rocket 2.5 22:45:40 10° NNW 22:50:26 60° NNE 22:50:26 60° NNE
Cosmos-2242 4.4 22:48:52 10° N 22:51:34 37° N 22:51:34 37° N
Cosmos 1953 4.4 22:54:35 10° N 22:56:18 24° N 22:56:18 24° N
Cosmos 1607 4.3 23:01:39 49° WSW 23:03:02 60° WNW 23:09:13 10° NNE
CZ-4C R/B 3.6 23:17:09 28° NE 23:17:09 28° NE 23:19:51 10° NNE
SeaSat 1 4.2 23:15:27 25° W 23:15:27 25° W 23:18:32 10° NW
ARGOS 4.5 23:18:20 32° W 23:18:20 32° W 23:22:43 10° NW
NOSS 3-2 (C) 4.3 23:27:22 41° NE 23:27:22 41° NE 23:31:29 10° NNE
H-2A R/B 3.8 23:45:29 26° NW 23:45:29 26° NW 23:48:11 10° NNW
Cosmos 2344 4.4 23:46:20 38° ENE 23:46:20 38° ENE 23:51:35 10° NE
Terra 4.0 23:53:35 20° NW 23:53:35 20° NW 23:55:29 10° NW
